Погода в Баккане

Вьетнам     22°08′25″N   105°50′29″E
темп.,
°C
ветер,
м/с
пор.,
м/с
влажн.,
%
обл.,
%
осадки,
мм/ч
давл.,
гПа
погр.,
м
25 мая, ср
ср2501:00+20ссз0099100 0.2 100919
04:00+20с0099100 0.1 100823
07:00+21ссв0199100 0.6 100929
10:00+24з019599 0.4 1008314
13:00+28ю127650 1.3 1004846
16:00+28ююз127166 1.5 1003950
19:00+23ю119575 1.6 100411
22:00+22ююв1199100 0.0 100613
26 мая, чт
чт2601:00+22ююв1199100 0.4 100531
04:00+22ююз11100100 1.6 100435
07:00+23ююз119996 1.9 100558
10:00+27ююз118142 0.3 1004664
13:00+27юз128593 4.8 1002713
16:00+27ююз1286100 4.4 999282
19:00+24ююв119598 4.9 100111
22:00+23ююз1198100 2.5 100317
27 мая, пт
пт2701:00+22ююв12100100 8.4 100176
04:00+22ю1199100 0.2 100146
07:00+23юв1197100 0.6 1002114
10:00+26юв1189100 0.9 1002514
13:00+26ююв1290100 5.3 1000491
16:00+25юв1296100 4.9 99972
19:00+23в1198100 5.9 100124
22:00+22ююв1199100 1.9 100316
28 мая, сб
сб2801:00+22юз1199100 7.6 100222
04:00+22ссв1199100 2.1 100126
07:00+23св0199100 2.8 100267
10:00+27юв128196 0.4 1002685
13:00+27ююз1385100 4.5 1000644
16:00+26ююв1289100 3.7 998490
19:00+23юв119878 4.4 100015
22:00+23юв1198100 0.1 100214
29 мая, вс
вс2901:00+23ю1199100 0.5 100134
04:00+22ю0098100 0.1 100112
07:00+24ююв019553 0.1 1002142
10:00+29ю116950 0.1 1002995
13:00+29ююз2270100 0.4 10001031
16:00+28юз128293 1.8 999333
19:00+25юв0093100 2.1 100111
22:00+24ю119698 0.5 100319